Regional Weather Roundup
Issued by NWS

Home | Current Version | Previous Version | Text Only | Print | Product List | Glossary Off
Versions: 1 2 3 4 5 6 7 8 9 10 11 12 13 14 15 16 17 18 19 20 21 22 23 24 25 26 27 28 29 30 31 32 33 34 35 36 37 38 39 40 41 42 43 44 45 46 47 48 49 50

905
ASUS43 KBIS 121310
RWRND

NORTH DAKOTA REGIONAL WEATHER ROUNDUP
NATIONAL WEATHER SERVICE BISMARCK ND
700 AM CST TUE DEC 12 2017

NOTE: "FAIR" INDICATES FEW OR NO CLOUDS BELOW 12,000 FEET WITH NO
SIGNIFICANT WEATHER AND/OR OBSTRUCTIONS TO VISIBILITY.


NDZ001>003-009>011-017-121400-
NORTHWEST NORTH DAKOTA

CITY           SKY/WX    TMP DP  RH WIND       PRES   REMARKS
WILLISTON      CLEAR     27  21  80 SW2       30.07F
MINOT          CLOUDY    30  24  78 SW8       29.99F
MINOT AFB      CLOUDY    29  23  79 W12       29.97F WCI  19
$$

NDZ018>021-031>035-040>046-121400-
SOUTHWEST NORTH DAKOTA

CITY           SKY/WX    TMP DP  RH WIND       PRES   REMARKS
BISMARCK       CLOUDY    26  24  92 SW5       30.11F
DICKINSON      CLOUDY    27  22  81 W12       30.05F WCI  17
GARRISON         N/A     26  24  92 W12       30.03F WCI  16
HETTINGER ARPT CLOUDY    20  16  84 CALM      30.13F
$$

NDZ004>008-012>016-024-026-027-054-121400-
NORTHEAST NORTH DAKOTA

CITY           SKY/WX    TMP DP  RH WIND       PRES   REMARKS
GRAND FORKS    CLOUDY    20  17  88 S9        30.07F WCI   9
GRND FRKS AFB  CLOUDY    22  18  86 S9        30.04F WCI  11
DEVILS LAKE    CLOUDY    24  22  91 SW7       30.01F WCI  16
$$

NDZ022-023-025-028>030-036>039-047>053-121400-
SOUTHEAST NORTH DAKOTA

CITY           SKY/WX    TMP DP  RH WIND       PRES   REMARKS
FARGO          CLOUDY    18  14  84 S10       30.11F WCI   6
JAMESTOWN      CLOUDY    24  22  91 SW8       30.06F WCI  15
$$





USA.gov is the U.S. government's official web portal to all federal, state and local government web resources and services.